Location: Pine Mountain Observatory
(43.7910°N, 120.9377°W)
Time: 07:38:09
(UTC-07:00)

Explorer 11/Cluster Stage 4 - Visible Passes

Search period start: 20 May 2019 00:00
Search period end: 30 May 2019 00:00
Orbit: 467 x 1260 km, 28.8° (Epoch: 18 May)

Date Brightness Start Highest point End Pass type
(mag) Time Alt. Az. Time Alt. Az. Time Alt. Az.
25 May 8.2 04:51:49 10° SSW 04:53:46 12° S 04:55:36 10° SSE visible
26 May 8.1 04:40:39 10° SSW 04:43:08 13° S 04:45:24 10° SSE visible
27 May 8.1 04:29:55 11° SW 04:32:29 15° S 04:35:06 10° SSE visible
28 May 8.1 04:19:40 13° SSW 04:21:48 15° S 04:24:44 10° SSE visible
29 May 8.1 04:09:29 15° SSW 04:11:07 16° S 04:14:17 10° SSE visible
